This is the latest recevied weather packets stored in our database for station/object WB4ZUT. If no packets are shown the sender has not sent any weather packets the latest 10 day(s).
| Time | Temp. | Humidity | Pressure | Rain* | Wind** | Luminosity | Snow |
|---|---|---|---|---|---|---|---|
| 1777557874 | 13.89° C | 57% | 1018.8 hPa | 0 mm | - | 407 W/m² | - |
| 1777557572 | 13.33° C | 60% | 1019 hPa | 0 mm | - | 379 W/m² | - |
| 1777557267 | 13.33° C | 59% | 1019 hPa | 0 mm | - | 359 W/m² | - |
| 1777556964 | 13.89° C | 60% | 1018.9 hPa | 0 mm | - | 363 W/m² | - |
| 1777556660 | 13.33° C | 62% | 1018.8 hPa | 0 mm | - | 313 W/m² | - |
| 1777556356 | 12.78° C | 62% | 1018.8 hPa | 0 mm | - | 290 W/m² | - |
| 1777556051 | 12.78° C | 63% | 1018.7 hPa | 0 mm | - | 306 W/m² | - |
| 1777555751 | 12.78° C | 61% | 1018.6 hPa | 0 mm | - | 255 W/m² | - |
| 1777555448 | 12.22° C | 65% | 1018.5 hPa | 0 mm | - | 220 W/m² | - |
| 1777555143 | 12.22° C | 66% | 1018.5 hPa | 0 mm | - | 221 W/m² | - |
| 1777554842 | 12.22° C | 67% | 1018.5 hPa | 0 mm | - | 229 W/m² | - |
| 1777554538 | 11.67° C | 67% | 1018.5 hPa | 0 mm | - | 209 W/m² | - |
| 1777554235 | 11.67° C | 71% | 1018.4 hPa | 0 mm | - | 200 W/m² | - |
| 1777553932 | 11.67° C | 72% | 1018.4 hPa | 0 mm | - | 184 W/m² | - |
| 1777553628 | 11.11° C | 74% | 1018.3 hPa | 0 mm | - | 168 W/m² | - |
| 1777553324 | 10.56° C | 75% | 1018.4 hPa | 0 mm | - | 150 W/m² | - |
| 1777553021 | 10.56° C | 75% | 1018.3 hPa | 0 mm | - | 138 W/m² | - |
| 1777552715 | 10.56° C | 77% | 1018.5 hPa | 0 mm | - | 125 W/m² | - |
| 1777552412 | 10° C | 78% | 1018.3 hPa | 0 mm | - | 75 W/m² | - |
| 1777552108 | 10° C | 80% | 1018.4 hPa | 0 mm | - | 64 W/m² | - |
| 1777551806 | 9.44° C | 82% | 1018 hPa | 0 mm | - | 58 W/m² | - |
| 1777551503 | 8.89° C | 84% | 1018.2 hPa | 0 mm | - | 53 W/m² | - |
| 1777551200 | 8.33° C | 86% | 1018.3 hPa | 0 mm | - | 49 W/m² | - |
| 1777550897 | 7.78° C | 86% | 1018 hPa | 0 mm | - | 37 W/m² | - |
| 1777550593 | 7.78° C | 87% | 1018 hPa | 0 mm | - | 33 W/m² | - |
* Rain latest hour (hover to see other rain measurements)
** Current wind speed in m/s (hover to see current wind gust speed)